TimeCDT,TemperatureF,Dew PointF,Humidity,Sea Level PressureIn,VisibilityMPH,Wind Direction,Wind SpeedMPH,Gust SpeedMPH,PrecipitationIn,Events,Conditions,WindDirDegrees,DateUTC
12:15 AM,51.8,51.3,98,30.12,7.0,NNE,9.2,-,0.02,Rain,Light Rain,30,2013-04-22 05:15:00
12:35 AM,51.6,51.4,99,30.12,5.0,NE,6.9,-,0.03,Rain,Light Rain,50,2013-04-22 05:35:00
12:55 AM,51.4,51.3,99,30.11,7.0,ENE,4.6,-,0.04,Rain,Light Rain,70,2013-04-22 05:55:00
1:15 AM,51.1,50.9,99,30.11,10.0,ENE,3.5,-,0.01,Rain,Light Rain,60,2013-04-22 06:15:00
1:35 AM,50.9,50.9,100,30.10,10.0,East,3.5,-,0.01,,Overcast,90,2013-04-22 06:35:00
1:55 AM,50.9,50.0,97,30.10,10.0,SSE,4.6,-,0.01,,Overcast,160,2013-04-22 06:55:00
2:15 AM,50.4,50.0,99,30.11,10.0,South,4.6,-,N/A,Rain,Light Rain,190,2013-04-22 07:15:00
2:35 AM,50.9,50.4,98,30.10,10.0,SSW,9.2,-,N/A,Rain,Light Rain,200,2013-04-22 07:35:00
2:55 AM,51.3,50.4,97,30.10,10.0,SSW,9.2,-,0.01,Rain,Rain,210,2013-04-22 07:55:00
3:15 AM,51.3,50.2,96,30.10,7.0,SSW,6.9,-,0.04,Rain,Rain,200,2013-04-22 08:15:00
3:35 AM,51.3,50.0,95,30.08,10.0,South,5.8,-,0.06,Rain,Light Rain,190,2013-04-22 08:35:00
3:55 AM,50.9,50.0,97,30.08,10.0,SSE,5.8,-,0.06,Rain,Light Rain,150,2013-04-22 08:55:00
4:15 AM,51.4,49.3,92,30.05,10.0,SE,9.2,-,0.01,,Overcast,140,2013-04-22 09:15:00
4:35 AM,50.9,48.9,93,30.07,10.0,South,3.5,-,0.01,,Mostly Cloudy,170,2013-04-22 09:35:00
4:55 AM,49.6,48.7,97,30.06,10.0,SSE,5.8,-,0.01,,Mostly Cloudy,160,2013-04-22 09:55:00
5:15 AM,49.1,48.7,99,30.06,7.0,SSE,6.9,-,N/A,,Scattered Clouds,160,2013-04-22 10:15:00
5:35 AM,49.5,49.1,99,30.05,10.0,SSE,8.1,-,N/A,,Scattered Clouds,160,2013-04-22 10:35:00
5:55 AM,49.8,48.6,95,30.05,10.0,SSE,6.9,-,N/A,,Scattered Clouds,160,2013-04-22 10:55:00
6:15 AM,50.0,48.4,94,30.04,10.0,SSE,9.2,-,N/A,,Mostly Cloudy,160,2013-04-22 11:15:00
6:35 AM,50.2,48.0,92,30.03,10.0,SE,5.8,-,N/A,,Light Drizzle,130,2013-04-22 11:35:00
6:55 AM,50.0,47.5,91,30.03,10.0,South,4.6,-,N/A,,Overcast,170,2013-04-22 11:55:00
7:15 AM,50.0,46.8,89,30.04,10.0,SE,5.8,-,N/A,Rain,Rain,140,2013-04-22 12:15:00
7:35 AM,50.0,46.9,89,30.04,10.0,SSE,6.9,-,N/A,,Overcast,160,2013-04-22 12:35:00
7:55 AM,50.4,47.3,89,30.04,10.0,South,5.8,-,N/A,,Overcast,170,2013-04-22 12:55:00
8:15 AM,50.9,46.4,85,30.04,10.0,South,8.1,-,N/A,,Overcast,170,2013-04-22 13:15:00
8:35 AM,50.9,45.0,80,30.04,10.0,SSE,9.2,-,N/A,,Overcast,160,2013-04-22 13:35:00
8:55 AM,50.5,44.8,81,30.04,10.0,South,8.1,-,N/A,,Overcast,170,2013-04-22 13:55:00
9:15 AM,50.4,44.6,81,30.04,10.0,South,8.1,-,N/A,,Overcast,180,2013-04-22 14:15:00
9:35 AM,50.4,44.6,81,30.05,10.0,South,6.9,-,N/A,,Light Drizzle,190,2013-04-22 14:35:00
9:55 AM,51.1,45.9,82,30.06,10.0,NW,4.6,-,N/A,,Overcast,320,2013-04-22 14:55:00
10:15 AM,51.1,46.8,85,30.05,10.0,Calm,Calm,-,N/A,,Overcast,0,2013-04-22 15:15:00
10:35 AM,51.8,45.9,80,30.04,10.0,Calm,Calm,-,N/A,,Mostly Cloudy,0,2013-04-22 15:35:00
10:55 AM,52.2,45.7,79,30.04,10.0,ESE,3.5,-,N/A,Rain,Light Rain,120,2013-04-22 15:55:00
11:15 AM,54.5,47.1,76,30.02,10.0,East,6.9,-,N/A,,Scattered Clouds,100,2013-04-22 16:15:00
11:35 AM,55.2,45.5,70,30.01,10.0,SSE,6.9,-,N/A,,Clear,150,2013-04-22 16:35:00
11:55 AM,56.7,46.4,69,30.00,10.0,SSE,10.4,-,N/A,,Scattered Clouds,160,2013-04-22 16:55:00
12:15 PM,57.9,47.1,67,29.99,10.0,SSE,11.5,-,N/A,,Scattered Clouds,160,2013-04-22 17:15:00
12:35 PM,59.2,45.5,60,29.99,10.0,South,16.1,21.9,N/A,,Mostly Cloudy,180,2013-04-22 17:35:00
12:55 PM,57.6,45.1,63,29.98,10.0,SSW,11.5,-,N/A,Rain,Rain,200,2013-04-22 17:55:00
1:15 PM,56.8,46.6,69,29.97,10.0,South,8.1,-,N/A,Thunderstorm,Drizzle,180,2013-04-22 18:15:00
1:35 PM,58.1,47.3,67,29.96,10.0,South,6.9,-,N/A,,Overcast,170,2013-04-22 18:35:00
1:55 PM,59.2,45.1,60,29.94,10.0,South,12.7,-,N/A,,Mostly Cloudy,170,2013-04-22 18:55:00
2:15 PM,60.3,44.8,57,29.94,10.0,South,11.5,-,N/A,,Mostly Cloudy,170,2013-04-22 19:15:00
2:35 PM,60.1,44.6,57,29.93,10.0,South,10.4,-,N/A,,Overcast,170,2013-04-22 19:35:00
2:55 PM,58.1,45.9,64,29.94,10.0,SSW,18.4,23.0,N/A,Rain,Light Rain,200,2013-04-22 19:55:00
3:15 PM,55.8,47.7,74,29.95,7.0,SW,11.5,-,N/A,Rain,Light Rain,220,2013-04-22 20:15:00
3:35 PM,54.9,48.2,78,29.96,5.0,SW,11.5,-,0.03,Rain,Rain,230,2013-04-22 20:35:00
3:55 PM,53.4,49.6,87,29.97,5.0,West,13.8,18.4,0.08,Rain,Heavy Rain,270,2013-04-22 20:55:00
4:15 PM,52.2,50.9,95,29.97,5.0,West,9.2,-,0.03,Rain,Rain,260,2013-04-22 21:15:00
4:35 PM,52.0,51.1,97,29.99,4.0,West,10.4,-,0.09,Rain,Rain,260,2013-04-22 21:35:00
4:55 PM,50.5,49.6,97,29.99,3.0,NW,13.8,19.6,0.20,Rain,Rain,320,2013-04-22 21:55:00
5:15 PM,45.5,44.8,97,30.00,5.0,NNW,11.5,17.3,0.02,Rain,Light Rain,330,2013-04-22 22:15:00
5:35 PM,44.8,43.9,97,30.01,10.0,NNW,13.8,-,0.04,Rain,Light Rain,330,2013-04-22 22:35:00
5:55 PM,43.7,42.8,97,30.03,5.0,NW,15.0,-,0.06,Rain,Rain,320,2013-04-22 22:55:00
6:15 PM,41.7,40.8,97,30.04,7.0,NNW,15.0,20.7,0.02,Rain,Rain,330,2013-04-22 23:15:00
6:35 PM,40.3,39.4,97,30.04,10.0,NNW,19.6,26.5,0.04,Rain,Light Rain,340,2013-04-22 23:35:00
6:55 PM,39.4,38.5,97,30.04,10.0,North,18.4,27.6,0.04,,Drizzle,350,2013-04-22 23:55:00
7:15 PM,38.8,38.1,97,30.05,10.0,North,15.0,24.2,N/A,Rain,Light Rain,350,2013-04-23 00:15:00
7:35 PM,37.8,37.4,99,30.06,10.0,North,18.4,23.0,N/A,,Light Drizzle,360,2013-04-23 00:35:00
7:55 PM,37.8,37.2,98,30.06,10.0,North,16.1,21.9,N/A,Rain,Light Rain,360,2013-04-23 00:55:00
8:15 PM,37.4,36.5,97,30.08,7.0,North,17.3,24.2,N/A,Rain,Rain,360,2013-04-23 01:15:00
8:35 PM,36.5,35.6,97,30.08,7.0,North,23.0,26.5,N/A,,Drizzle,360,2013-04-23 01:35:00
8:55 PM,36.0,35.4,98,30.09,7.0,North,25.3,-,0.01,,Light Drizzle,360,2013-04-23 01:55:00
9:15 PM,35.8,35.1,97,30.11,10.0,North,18.4,28.8,N/A,,Overcast,360,2013-04-23 02:15:00
9:35 PM,35.8,34.9,97,30.13,10.0,North,20.7,31.1,N/A,,Overcast,360,2013-04-23 02:35:00
9:55 PM,35.8,34.9,97,30.14,10.0,North,18.4,29.9,N/A,,Overcast,360,2013-04-23 02:55:00
10:15 PM,35.6,34.7,97,30.13,10.0,North,20.7,26.5,N/A,,Overcast,10,2013-04-23 03:15:00
10:35 PM,34.9,34.0,97,30.11,10.0,North,23.0,28.8,N/A,,Overcast,10,2013-04-23 03:35:00
10:55 PM,34.9,33.6,95,30.11,10.0,North,21.9,31.1,N/A,,Overcast,10,2013-04-23 03:55:00
11:15 PM,34.9,33.4,94,30.14,10.0,North,25.3,32.2,N/A,,Overcast,360,2013-04-23 04:15:00
11:35 PM,34.9,33.3,94,30.14,10.0,North,19.6,27.6,N/A,,Overcast,360,2013-04-23 04:35:00
11:55 PM,34.7,32.9,93,30.17,10.0,North,21.9,27.6,N/A,,Overcast,350,2013-04-23 04:55:00